Terminal Aerodrome Forecast
Issued by NWS

Home | Current Version | Previous Version | Text Only | Print | Product List | Glossary On
Versions: 1 2 3 4 5 6 7 8 9 10 11 12 13 14
000
FTUS46 KMTR 012300
TAFSJC
TAF
KSJC 012340Z 0200/0224 29009KT P6SM FEW140 SCT250
     FM020500 29004KT P6SM SKC
     FM021900 30009KT P6SM SKC=

USA.gov is the U.S. government's official web portal to all federal, state and local government web resources and services.